TimeMST,TemperatureF,Dew PointF,Humidity,Sea Level PressureIn,VisibilityMPH,Wind Direction,Wind SpeedMPH,Gust SpeedMPH,PrecipitationIn,Events,Conditions,WindDirDegrees,DateUTC
12:15 AM,25.9,21.2,82,30.32,10.0,Calm,Calm,-,N/A,,Clear,0,2012-11-16 07:15:00
12:35 AM,24.3,20.3,85,30.32,10.0,Calm,Calm,-,N/A,,Clear,0,2012-11-16 07:35:00
12:55 AM,24.8,20.7,84,30.31,10.0,Calm,Calm,-,N/A,,Clear,0,2012-11-16 07:55:00
1:15 AM,25.5,20.3,81,30.32,10.0,Calm,Calm,-,N/A,,Clear,0,2012-11-16 08:15:00
1:35 AM,25.0,20.1,82,30.31,10.0,Calm,Calm,-,N/A,,Clear,0,2012-11-16 08:35:00
1:55 AM,23.2,19.2,85,30.30,10.0,Calm,Calm,-,N/A,,Clear,0,2012-11-16 08:55:00
2:15 AM,23.5,19.2,84,30.31,10.0,Calm,Calm,-,N/A,,Clear,0,2012-11-16 09:15:00
2:35 AM,22.6,18.5,84,30.32,10.0,Calm,Calm,-,N/A,,Clear,0,2012-11-16 09:35:00
2:55 AM,21.6,18.7,89,30.32,10.0,East,3.5,-,N/A,,Clear,100,2012-11-16 09:55:00
3:15 AM,23.0,20.5,90,30.31,10.0,East,9.2,-,N/A,,Clear,100,2012-11-16 10:15:00
3:35 AM,21.6,18.3,87,30.30,10.0,Calm,Calm,-,N/A,,Clear,0,2012-11-16 10:35:00
3:55 AM,21.9,19.4,90,30.30,10.0,NW,4.6,-,N/A,,Clear,310,2012-11-16 10:55:00
4:15 AM,21.2,18.3,89,30.30,10.0,NNW,5.8,-,N/A,,Clear,330,2012-11-16 11:15:00
4:35 AM,20.7,18.0,89,30.30,10.0,SE,3.5,-,N/A,,Clear,130,2012-11-16 11:35:00
4:55 AM,19.2,17.4,93,30.30,10.0,East,3.5,-,N/A,,Clear,90,2012-11-16 11:55:00
5:15 AM,21.9,19.6,91,30.29,10.0,Calm,Calm,-,N/A,,Clear,0,2012-11-16 12:15:00
5:35 AM,20.3,18.3,92,30.29,10.0,Calm,Calm,-,N/A,,Clear,0,2012-11-16 12:35:00
5:55 AM,21.7,18.5,87,30.28,10.0,Calm,Calm,-,N/A,,Clear,0,2012-11-16 12:55:00
6:15 AM,21.2,16.9,83,30.28,10.0,Calm,Calm,-,N/A,,Clear,0,2012-11-16 13:15:00
6:35 AM,19.0,16.2,89,30.28,10.0,Calm,Calm,-,N/A,,Clear,0,2012-11-16 13:35:00
6:55 AM,20.1,17.6,90,30.28,10.0,Calm,Calm,-,N/A,,Clear,0,2012-11-16 13:55:00
7:15 AM,21.6,18.5,88,30.28,10.0,Calm,Calm,-,N/A,,Clear,0,2012-11-16 14:15:00
7:35 AM,20.1,17.6,90,30.28,10.0,Calm,Calm,-,N/A,,Clear,0,2012-11-16 14:35:00
7:55 AM,23.2,18.5,82,30.27,10.0,Calm,Calm,-,N/A,,Clear,0,2012-11-16 14:55:00
8:15 AM,23.7,18.0,79,30.28,10.0,Calm,Calm,-,N/A,,Clear,0,2012-11-16 15:15:00
8:35 AM,24.8,19.8,81,30.28,10.0,Calm,Calm,-,N/A,,Clear,0,2012-11-16 15:35:00
8:55 AM,27.0,20.1,75,30.27,10.0,Calm,Calm,-,N/A,,Clear,0,2012-11-16 15:55:00
9:15 AM,28.8,20.8,72,30.27,10.0,Calm,Calm,-,N/A,,Clear,0,2012-11-16 16:15:00
9:35 AM,30.2,21.4,70,30.27,10.0,Calm,Calm,-,N/A,,Clear,0,2012-11-16 16:35:00
9:55 AM,32.5,21.7,64,30.26,10.0,Calm,Calm,-,N/A,,Clear,0,2012-11-16 16:55:00
10:15 AM,34.9,20.3,55,30.25,10.0,Calm,Calm,-,N/A,,Clear,0,2012-11-16 17:15:00
10:35 AM,36.7,19.9,51,30.24,10.0,Calm,Calm,-,N/A,,Clear,0,2012-11-16 17:35:00
10:55 AM,38.7,20.1,47,30.23,10.0,Calm,Calm,-,N/A,,Clear,0,2012-11-16 17:55:00
11:15 AM,40.5,19.6,43,30.22,10.0,Calm,Calm,-,N/A,,Scattered Clouds,0,2012-11-16 18:15:00
11:35 AM,42.6,18.3,38,30.21,10.0,Calm,Calm,-,N/A,,Scattered Clouds,0,2012-11-16 18:35:00
11:55 AM,44.1,16.9,34,30.20,10.0,Calm,Calm,-,N/A,,Clear,0,2012-11-16 18:55:00
12:15 PM,45.9,17.8,33,30.18,10.0,Calm,Calm,-,N/A,,Clear,0,2012-11-16 19:15:00
12:35 PM,47.3,15.6,28,30.18,10.0,Calm,Calm,-,N/A,,Clear,0,2012-11-16 19:35:00
12:55 PM,48.2,19.2,32,30.17,10.0,Calm,Calm,-,N/A,,Clear,0,2012-11-16 19:55:00
1:15 PM,47.7,17.1,30,30.17,10.0,Calm,Calm,-,N/A,,Clear,0,2012-11-16 20:15:00
1:35 PM,46.6,17.8,32,30.17,10.0,Calm,Calm,-,N/A,,Mostly Cloudy,0,2012-11-16 20:35:00
1:55 PM,46.9,19.4,34,30.17,10.0,Calm,Calm,-,N/A,,Overcast,0,2012-11-16 20:55:00
2:15 PM,46.0,18.5,33,30.16,10.0,ESE,4.6,-,N/A,,Overcast,120,2012-11-16 21:15:00
2:35 PM,45.7,18.3,34,30.17,10.0,Calm,Calm,-,N/A,,Overcast,0,2012-11-16 21:35:00
2:55 PM,46.0,16.7,31,30.18,10.0,WSW,6.9,18.4,N/A,,Overcast,250,2012-11-16 21:55:00
3:15 PM,43.7,25.5,49,30.18,10.0,NW,9.2,-,N/A,,Overcast,320,2012-11-16 22:15:00
3:35 PM,43.5,25.2,48,30.17,10.0,North,4.6,-,N/A,,Overcast,360,2012-11-16 22:35:00
3:55 PM,43.5,25.3,49,30.18,10.0,Calm,Calm,-,N/A,,Overcast,0,2012-11-16 22:55:00
4:15 PM,43.9,24.4,46,30.16,10.0,Calm,Calm,-,N/A,,Overcast,0,2012-11-16 23:15:00
4:35 PM,43.2,23.9,47,30.16,10.0,Calm,Calm,-,N/A,,Overcast,0,2012-11-16 23:35:00
4:55 PM,41.0,26.4,56,30.18,10.0,SSW,4.6,-,N/A,,Overcast,210,2012-11-16 23:55:00
5:15 PM,40.6,28.0,61,30.17,10.0,NE,5.8,-,N/A,,Overcast,40,2012-11-17 00:15:00
5:35 PM,41.2,27.1,57,30.16,10.0,East,3.5,-,N/A,,Overcast,100,2012-11-17 00:35:00
5:55 PM,41.9,25.2,52,30.17,10.0,Calm,Calm,-,N/A,,Overcast,0,2012-11-17 00:55:00
6:15 PM,40.8,26.4,57,30.17,10.0,Calm,Calm,-,N/A,,Overcast,0,2012-11-17 01:15:00
6:35 PM,39.4,28.6,65,30.17,10.0,Calm,Calm,-,N/A,,Overcast,0,2012-11-17 01:35:00
6:55 PM,40.5,27.5,60,30.17,10.0,West,3.5,-,N/A,,Overcast,270,2012-11-17 01:55:00
7:15 PM,39.9,28.0,63,30.16,10.0,Calm,Calm,-,N/A,,Overcast,0,2012-11-17 02:15:00
7:35 PM,38.5,28.4,67,30.16,10.0,Calm,Calm,-,N/A,,Overcast,0,2012-11-17 02:35:00
7:55 PM,37.4,28.8,71,30.17,10.0,Calm,Calm,-,N/A,,Overcast,0,2012-11-17 02:55:00
8:15 PM,38.1,29.1,70,30.16,10.0,NNW,3.5,-,N/A,,Overcast,340,2012-11-17 03:15:00
8:55 PM,37.6,28.2,69,30.16,10.0,West,4.6,-,N/A,,Overcast,260,2012-11-17 03:55:00
9:15 PM,36.7,29.8,76,30.18,10.0,Calm,Calm,-,N/A,,Overcast,0,2012-11-17 04:15:00
9:35 PM,37.8,30.0,74,30.20,10.0,Calm,Calm,-,N/A,,Overcast,0,2012-11-17 04:35:00
9:55 PM,37.6,31.1,77,30.20,10.0,East,5.8,-,N/A,,Overcast,90,2012-11-17 04:55:00
10:15 PM,37.6,31.1,77,30.19,10.0,ENE,10.4,-,N/A,,Overcast,70,2012-11-17 05:15:00
10:35 PM,37.9,31.1,76,30.20,10.0,SW,6.9,-,N/A,,Overcast,230,2012-11-17 05:35:00
10:55 PM,37.0,31.8,81,30.22,10.0,West,3.5,-,N/A,,Overcast,270,2012-11-17 05:55:00
11:15 PM,35.2,33.1,92,30.23,7.0,Calm,Calm,-,N/A,,Overcast,0,2012-11-17 06:15:00
11:35 PM,34.3,32.9,94,30.23,7.0,Calm,Calm,-,N/A,,Overcast,0,2012-11-17 06:35:00
11:55 PM,33.8,32.9,96,30.22,10.0,Calm,Calm,-,N/A,,Overcast,0,2012-11-17 06:55:00